DB0LC-2 Weather Reports


Display with metric or nautical units.
time (UTC)temp
F
wind
direction
speed
MPH
gust
MPH
rain 1hr
in
rain 24hr
in
rain mn
in
humidity
%
barometer
mb
20240718053050 68 0 0.0 0.0 0.00 0.00 0.00 64 917.8
20240718053017 68 0 0.0 0.0 0.00 0.00 0.00 64 917.8
20240718051013 67 0 0.0 0.0 0.00 0.00 0.00 63 917.6
20240718050017 68 0 0.0 0.0 0.00 0.00 0.00 61 917.8
20240718050015 68 0 0.0 0.0 0.00 0.00 0.00 61 917.7
20240718045015 68 0 0.0 0.0 0.00 0.00 0.00 64 917.7
20240718044022 68 0 0.0 0.0 0.00 0.00 0.00 64 917.7
20240718043054 68 0 0.0 0.0 0.00 0.00 0.00 62 917.8
20240718043023 68 0 0.0 0.0 0.00 0.00 0.00 62 917.8
20240718042013 68 0 0.0 0.0 0.00 0.00 0.00 64 917.8
20240718041018 68 0 0.0 0.0 0.00 0.00 0.00 64 917.6
20240718040023 67 0 0.0 0.0 0.00 0.00 0.00 64 917.6
20240718035011 68 0 0.0 0.0 0.00 0.00 0.00 60 917.7
20240718034016 68 0 0.0 0.0 0.00 0.00 0.00 64 917.7
20240718033018 68 0 0.0 0.0 0.00 0.00 0.00 64 917.6
20240718032014 67 0 0.0 0.0 0.00 0.00 0.00 62 917.6
20240718031015 68 0 0.0 0.0 0.00 0.00 0.00 62 917.6
20240718030021 68 0 0.0 0.0 0.00 0.00 0.00 64 917.5
20240718024013 68 0 0.0 0.0 0.00 0.00 0.00 61 917.7
20240718023050 68 0 0.0 0.0 0.00 0.00 0.00 64 917.7
20240718023018 68 0 0.0 0.0 0.00 0.00 0.00 64 917.7
20240718022012 68 0 0.0 0.0 0.00 0.00 0.00 64 917.8
20240718021014 67 0 0.0 0.0 0.00 0.00 0.00 62 917.8
20240718020011 68 0 0.0 0.0 0.00 0.00 0.00 64 917.8
20240718015017 68 0 0.0 0.0 0.00 0.00 0.00 64 917.8
20240718014014 67 0 0.0 0.0 0.00 0.00 0.00 63 917.9
20240718013014 68 0 0.0 0.0 0.00 0.00 0.00 62 917.9
20240718012016 68 0 0.0 0.0 0.00 0.00 0.00 64 918.0
20240718011011 67 0 0.0 0.0 0.00 0.00 0.00 64 917.9
20240718010026 68 0 0.0 0.0 0.00 0.00 0.00 61 918.1
20240718005011 68 0 0.0 0.0 0.00 0.00 0.00 64 918.1
20240718003015 67 0 0.0 0.0 0.00 0.00 0.00 62 918.3
20240718002020 68 0 0.0 0.0 0.00 0.00 0.00 64 918.4
20240718001010 68 0 0.0 0.0 0.00 0.00 0.00 65 918.4
20240718000017 67 0 0.0 0.0 0.00 0.00 0.00 64 918.4
20240717234012 68 0 0.0 0.0 0.00 0.00 0.00 64 918.5
20240717233012 67 0 0.0 0.0 0.00 0.00 0.00 64 918.7
20240717232009 68 0 0.0 0.0 0.00 0.00 0.00 61 918.7
20240717230011 68 0 0.0 0.0 0.00 0.00 0.00 64 918.7
20240717225012 67 0 0.0 0.0 0.00 0.00 0.00 62 918.8
20240717224013 68 0 0.0 0.0 0.00 0.00 0.00 64 918.9
20240717223010 68 0 0.0 0.0 0.00 0.00 0.00 65 918.9
20240717222012 67 0 0.0 0.0 0.00 0.00 0.00 63 919.0
20240717221009 68 0 0.0 0.0 0.00 0.00 0.00 64 919.1
20240717220014 68 0 0.0 0.0 0.00 0.00 0.00 64 919.1
20240717215018 67 0 0.0 0.0 0.00 0.00 0.00 63 919.2
20240717214011 68 0 0.0 0.0 0.00 0.00 0.00 63 919.2
20240717213012 68 0 0.0 0.0 0.00 0.00 0.00 64 919.2
20240717212012 67 0 0.0 0.0 0.00 0.00 0.00 64 919.2
20240717211009 68 0 0.0 0.0 0.00 0.00 0.00 61 919.3
20240717210012 68 0 0.0 0.0 0.00 0.00 0.00 65 919.3
20240717205012 68 0 0.0 0.0 0.00 0.00 0.00 64 919.3
20240717204012 68 0 0.0 0.0 0.00 0.00 0.00 61 919.3
20240717203010 68 0 0.0 0.0 0.00 0.00 0.00 64 919.4
20240717202007 68 0 0.0 0.0 0.00 0.00 0.00 64 919.5
20240717200011 68 0 0.0 0.0 0.00 0.00 0.00 64 919.4
20240717194009 68 0 0.0 0.0 0.00 0.00 0.00 61 919.4
20240717192020 67 0 0.0 0.0 0.00 0.00 0.00 64 919.3
20240717191018 68 0 0.0 0.0 0.00 0.00 0.00 62 919.3
20240717190018 68 0 0.0 0.0 0.00 0.00 0.00 64 919.2
20240717185020 67 0 0.0 0.0 0.00 0.00 0.00 63 919.1
20240717184020 68 0 0.0 0.0 0.00 0.00 0.00 63 919.1
20240717183025 68 0 0.0 0.0 0.00 0.00 0.00 64 919.0
20240717182018 68 0 0.0 0.0 0.00 0.00 0.00 63 918.9
20240717175019 67 0 0.0 0.0 0.00 0.00 0.00 62 918.8
20240717174017 68 0 0.0 0.0 0.00 0.00 0.00 65 918.8
20240717173017 67 0 0.0 0.0 0.00 0.00 0.00 64 918.7
20240717172306 68 0 0.0 0.0 0.00 0.00 0.00 61 918.6
20240717172019 68 0 0.0 0.0 0.00 0.00 0.00 61 918.6
20240717165019 68 0 0.0 0.0 0.00 0.00 0.00 64 918.8
20240717162130 68 0 0.0 0.0 0.00 0.00 0.00 64 918.9
20240717162019 68 0 0.0 0.0 0.00 0.00 0.00 64 918.9
20240717161017 67 0 0.0 0.0 0.00 0.00 0.00 64 918.7
20240717155015 68 0 0.0 0.0 0.00 0.00 0.00 64 918.8
20240717154016 68 0 0.0 0.0 0.00 0.00 0.00 63 918.9
20240717153022 68 0 0.0 0.0 0.00 0.00 0.00 62 919.0
20240717152019 68 0 0.0 0.0 0.00 0.00 0.00 64 919.0
20240717151016 68 0 0.0 0.0 0.00 0.00 0.00 63 919.0
20240717150017 68 0 0.0 0.0 0.00 0.00 0.00 64 919.0
20240717145016 68 0 0.0 0.0 0.00 0.00 0.00 64 919.2
20240717144021 67 0 0.0 0.0 0.00 0.00 0.00 63 919.0
20240717143020 68 0 0.0 0.0 0.00 0.00 0.00 64 919.0
20240717141404 67 0 0.0 0.0 0.00 0.00 0.00 63 919.1
20240717140407 68 0 0.0 0.0 0.00 0.00 0.00 64 919.0
20240717135404 67 0 0.0 0.0 0.00 0.00 0.00 64 919.1
20240717134402 67 0 0.0 0.0 0.00 0.00 0.00 61 919.0
20240717132404 68 0 0.0 0.0 0.00 0.00 0.00 62 919.0
20240717131403 68 0 0.0 0.0 0.00 0.00 0.00 64 919.0
20240717125404 68 0 0.0 0.0 0.00 0.00 0.00 61 918.9
20240717124403 68 0 0.0 0.0 0.00 0.00 0.00 64 918.8
20240717123401 67 0 0.0 0.0 0.00 0.00 0.00 63 918.8
20240717122403 68 0 0.0 0.0 0.00 0.00 0.00 64 918.8
20240717122401 68 0 0.0 0.0 0.00 0.00 0.00 64 918.9
20240717121403 68 0 0.0 0.0 0.00 0.00 0.00 64 918.9
20240717120407 68 0 0.0 0.0 0.00 0.00 0.00 61 918.9
20240717115500 68 0 0.0 0.0 0.00 0.00 0.00 64 918.9
20240717115406 68 0 0.0 0.0 0.00 0.00 0.00 64 918.9
20240717114404 68 0 0.0 0.0 0.00 0.00 0.00 64 918.9
20240717112402 68 0 0.0 0.0 0.00 0.00 0.00 64 918.8
20240717111403 68 0 0.0 0.0 0.00 0.00 0.00 63 918.9
20240717110401 68 0 0.0 0.0 0.00 0.00 0.00 62 918.8
20240717105419 68 0 0.0 0.0 0.00 0.00 0.00 64 918.9
20240717104404 68 0 0.0 0.0 0.00 0.00 0.00 64 919.0
20240717103401 68 0 0.0 0.0 0.00 0.00 0.00 61 919.0
20240717102402 68 0 0.0 0.0 0.00 0.00 0.00 64 918.8
20240717101409 68 0 0.0 0.0 0.00 0.00 0.00 64 919.0
20240717100401 68 0 0.0 0.0 0.00 0.00 0.00 62 918.8
20240717095405 68 0 0.0 0.0 0.00 0.00 0.00 64 918.7
20240717094409 68 0 0.0 0.0 0.00 0.00 0.00 64 918.5
20240717092400 68 0 0.0 0.0 0.00 0.00 0.00 64 918.7
20240717090401 67 0 0.0 0.0 0.00 0.00 0.00 63 918.6
20240717085402 68 0 0.0 0.0 0.00 0.00 0.00 64 918.6
20240717084404 68 0 0.0 0.0 0.00 0.00 0.00 65 918.9
20240717083406 67 0 0.0 0.0 0.00 0.00 0.00 63 918.6
20240717082406 68 0 0.0 0.0 0.00 0.00 0.00 64 918.8
20240717082404 68 0 0.0 0.0 0.00 0.00 0.00 64 918.7
20240717081400 68 0 0.0 0.0 0.00 0.00 0.00 65 918.6
20240717080401 67 0 0.0 0.0 0.00 0.00 0.00 63 918.7
20240717075403 68 0 0.0 0.0 0.00 0.00 0.00 64 918.7
20240717074406 68 0 0.0 0.0 0.00 0.00 0.00 65 918.7
20240717073407 67 0 0.0 0.0 0.00 0.00 0.00 63 918.8
20240717072359 68 0 0.0 0.0 0.00 0.00 0.00 63 918.8
20240717071408 68 0 0.0 0.0 0.00 0.00 0.00 64 918.7
20240717065459 68 0 0.0 0.0 0.00 0.00 0.00 61 918.7
20240717065405 68 0 0.0 0.0 0.00 0.00 0.00 61 918.7
20240717065403 68 0 0.0 0.0 0.00 0.00 0.00 61 918.8
20240717064359 68 0 0.0 0.0 0.00 0.00 0.00 64 918.7
20240717063400 68 0 0.0 0.0 0.00 0.00 0.00 64 918.7
20240717062401 68 0 0.0 0.0 0.00 0.00 0.00 62 918.6
20240717061401 68 0 0.0 0.0 0.00 0.00 0.00 64 918.5
20240717060401 68 0 0.0 0.0 0.00 0.00 0.00 64 918.4
20240717055403 67 0 0.0 0.0 0.00 0.00 0.00 63 918.3
20240717054358 68 0 0.0 0.0 0.00 0.00 0.00 61 918.3